{"data":{"norad_id":47613,"epoch":"2026-09-19T19:31:51.591648Z","epoch_age_seconds":81103,"freshness":"FRESH","line1":"1 47613U 21010A   26262.81379157  .00000039  00000+0  00000+0 0  9994","line2":"2 47613   0.0192 217.5378 0003632 324.1694 288.4711  1.00272598 20761","mean_motion":1.00272598,"eccentricity":0.0003632,"inclination_deg":0.0192,"raan_deg":217.5378,"arg_perigee_deg":324.1694,"mean_anomaly_deg":288.4711,"bstar":0,"rev_number":2076,"period_min":1436.0852603021,"perigee_km":35771.052901447,"apogee_km":35801.681197189,"semimajor_km":42164.504049318,"source":"CELESTRAK","updated_at":"2026-09-20T09:00:35.297458Z"}}